Погода Завитая

Поиск расширенной информации на нашем сайте:

Полезная информация:

Новости сайта



02.01.2020
Опубликован Долгосрочный прогноз погоды по городам России и ближнего зарубежья на январь 2020 года.
Карты: Прогноз на январь и февраль 2020 года, Сравнение прогнозируемой аномалии приземной температуры воздуха на январь 2020 года по разным моделям.




Погода Завитая - сегодня

Время (UTC), дата Ветер
(°,м/с) 
Видим.   Явления Облачность Т
(°С)
Тd
(°С)
f(%) Тe
(°С)
Pmin
(гПа)
dP
(гПа)
Po
(мм)
O2
(г/м3)
Тmin Tmax R s Состояние
почвы
00 30.11.20 тихо ()   10 км  слаб. снег  10/0 средняя 
[As op]
-15.1 -18.4 76 -15  1025.4  0.7  745  319  -16.5    0.0  равномерный
сухой снег
100% 
03 30.11.20 280 (З) 20000 м  {снег}  10/0 средняя 
[As op]
-13.1 -17.6 69 -15  1024.9  -0.2  745  317           
06 30.11.20 280 (З) 10 км  слаб. снег  10/0 средняя 
[As op]
-13.2 -18 67 -17  1025.4  0.5  745  317           
09 30.11.20 290 (З) 20000 м  {снег}  ясно 
-16.4 -19.8 75 -19  1027.6  1.7  747  322           
12 30.11.20 тихо ()   20000 м  {снег}  ясно 
-18.3 -21.3 77 -18  1028.9  747  324    -12.5  0.3     
15 30.11.20 260 (З) 20000 м    ясно 
-19 -22.9 71 -19  1029.4  0.4  748  325           
18 30.11.20 230 (ЮЗ) 20000 м    ясно 
-19 -23.3 69 -23  1029.8  0.4  748  326           
21 30.11.20 тихо ()   20000 м    ясно 
-20.1 -23.6 74 -20  1029.6  -0.3  748  327           
00 01.12.20 230 (ЮЗ) 20000 м    ясно 
-19 -23 71 -22  1030.6  749  326  -20.3      равномерный
сухой снег
100% 
03 01.12.20 280 (З) 20000 м    ясно 
-12.5 -19.7 55 -15  1029.4  -0.3  748  317           
06 01.12.20 260 (З) 20000 м    ясно 
-10.7 -20.4 45 -13  1028.5  -0.7  748  315           
09 01.12.20 220 (ЮЗ) 20000 м    ясно 
-15.3 -20.9 62 -15  1029.3  0.3  748  321           
12 01.12.20 210 (ЮЗ) 20000 м    ясно 
-17.6 -22.1 68 -18  1028.8  -0.9  747  323    -10.6       
15 01.12.20 230 (ЮЗ) 20000 м    4/0 верхняя 
[Ci fib]
-17.3 -21.5 70 -20  1028  -0.6  747  323           
18 01.12.20 230 (ЮЗ) 20000 м    8/0 верхняя 
[Ci fib]
-17.7 -21.5 72 -20  1027.7  -0.5  746  323           
21 01.12.20 220 (ЮЗ) 20000 м    ясно 
-19.6 -22.9 75 -20  1027.1  -0.8  746  325           
00 02.12.20 тихо ()   20000 м    ясно 
-19.7 -23 75 -20  1026.9  -0.1  746  326  -23.5      равномерный
сухой снег
100% 
03 02.12.20 тихо ()   20000 м    3/0 верхняя 
[Ci fib]
-11.3 -19 53 -11  1024.9  -0.9  745  315           
06 02.12.20 260 (З) 20000 м    1/0 верхняя 
[Ci fib]
-11.3 -19.9 49 -13  1024  -0.9  744  314           
09 02.12.20 240 (ЮЗ) 20000 м    3/0 верхняя 
[Ci fib]
-15.9 -20.5 68 -18  1024.8  0.2  745  320           
12 02.12.20 230 (ЮЗ) 20000 м    6/0 средняя, верхняя 
[Ac trans|Ci fib]
-16.4 -21.6 64 -19  1023.7  -1.1  744  320    -11.1       
15 02.12.20 230 (ЮЗ) 20000 м    6/0 средняя, верхняя 
[Ac trans|Ci fib]
-17.5 -21.5 71 -20  1022.3  -1.4  743  321           
18 02.12.20 240 (ЮЗ) 20000 м    8/0 средняя, верхняя 
[Ac trans|Ci fib]
-18 -21.8 72 -18  1021.8  -0.7  742  322           
21 02.12.20 240 (ЮЗ) 20000 м    8/0 средняя, верхняя 
[Ac trans|Ci fib]
-18.1 -21.9 72 -21  1020.7  -1.1  741  322           
00 03.12.20 тихо ()   20000 м    1/0 верхняя 
[Ci fib]
-18.2 -21.7 74 -18  1020.8  0.1  741  322  -19.2      равномерный
сухой снег
100% 
Время (UTC), дата Ветер
(°,м/с) 
Видим.   Явления Облачность Т
(°С)
Тd
(°С)
f(%) Тe
(°С)
Pmin
(гПа)
dP
(гПа)
Po
(мм)
O2
(г/м3)
Тmin Tmax R s Состояние
почвы

Для получения пояснительной информации подведите курсор к названию столбца.

ПОГОДА Завитая - архив

Всё, что Вы хотите узнать о погоде Завитая - удобно и подробно!

Выберите нужную дату (начиная с 1 января 2019* года) и нажмите кнопку "Найти".
Будут отображены архивные сводки погоды по пункту Завитая, начиная с указанной даты.


Отображать данные в формате CSV (для использования в таблицах Excel)


Внимание! Наш архив погоды предназначен исключительно для личного некоммерческого использования в познавательных целях. Если Вам необходимы официальные справки о состоянии погоды (для производственных, юридических, коммерческих и т.п. целей), обращайтесь в органы Росгидромета.

*Примечание: данная дата относится к архиву по метеостанциям СССР (Россия, СНГ, Балтия).
Архив по метеостанциям Зарубежной Европы и Азии (кроме Китая) хранится 10 дней, по другим регионам земного шара (Китай, Африка, Америка, Австралия, Океания) - 1 день.

Завитая - район местоположения метеостанции


Название, широта, долгота, высота метеостанции:
Завитая 50.1°ш. 129.5°д. 241 м над ур. моря [Российская Федерация]

Дополнительная информация

В oтличие oт бoльшинства пoгoдных сайтoв мы публикуем пoдрoбную метеoинфoрмацию в детальнoм прoфессиoнальнoм фoрмате.

Характеристики температуры и влажнoсти вoздуха измеряются на высoте 2 м в тени вдали oт зданий и деревьев.
Скoрoсть ветра измеряется на высoте 10 м (на урoвне рoста челoвека скoрoсть ветра ниже в 1.5-2 раза). Если метеoстанция нахoдится в гoрoде или в лесу, тo скoрoсть ветра занижена на 2-4 м/с пo сравнению с oткрытым местoм. Скoрoсть ветра над акватoриями крупных рек и oзёр, а также на вершинах хoлмoв на 2-5 м/с выше, чем в oбычных услoвиях.
Атмoсфернoе давление в разных тoчках местнoсти мoжет значительнo oтличаться oт давления на метеoстанции, в зависимoсти oт услoвий рельефа (при пoдъёме на 10 м давление пoнижается примернo на 1 мм рт.ст.).